GW2624 Weather Reports


time (UTC)temp
C
wind
direction
speed
KPH
gust
KPH
rain 1hr
cm
rain 24hr
cm
rain mn
cm
humidity
%
barometer
mb
20260906092905 17 123 0.0 3.2 0.00 0.00 0.00 54 1006.1
20260906092404 17 136 0.0 3.2 0.00 0.00 0.00 56 1006.1
20260906091404 17 139 0.0 0.0 0.00 0.00 0.00 58 1006.0
20260906090904 17 139 0.0 0.0 0.00 0.00 0.00 57 1006.1
20260906085905 17 139 0.0 1.6 0.00 0.00 0.00 60 1006.0
20260906085404 17 139 0.0 0.0 0.00 0.00 0.00 59 1006.0
20260906084904 17 139 0.0 0.0 0.00 0.00 0.00 58 1006.0
20260906084404 17 139 0.0 0.0 0.00 0.00 0.00 58 1006.0
20260906082404 17 139 0.0 1.6 0.00 0.00 0.00 58 1006.2
20260906081904 17 139 1.6 4.8 0.00 0.00 0.00 57 1006.2
20260906081405 17 139 1.6 4.8 0.00 0.00 0.00 58 1006.2
20260906074404 17 155 0.0 1.6 0.00 0.00 0.00 58 1006.3
20260906070905 18 155 0.0 4.8 0.00 0.00 0.00 52 1006.5
20260906070404 18 155 0.0 4.8 0.00 0.00 0.00 52 1006.6
20260906065404 18 146 1.6 3.2 0.00 0.00 0.00 52 1006.6
20260906064904 18 146 0.0 4.8 0.00 0.00 0.00 52 1006.6
20260906064404 18 146 0.0 4.8 0.00 0.00 0.00 52 1006.7
20260906063905 18 146 1.6 4.8 0.00 0.00 0.00 53 1006.6
20260906063404 18 148 1.6 4.8 0.00 0.00 0.00 53 1006.7
20260906062904 18 141 1.6 4.8 0.00 0.00 0.00 54 1006.6
20260906061404 18 138 0.0 1.6 0.00 0.00 0.00 53 1006.4
20260906060404 18 138 0.0 0.0 0.00 0.00 0.00 55 1006.4
20260906055905 18 138 0.0 0.0 0.00 0.00 0.00 55 1006.4
20260906055404 18 138 0.0 0.0 0.00 0.00 0.00 54 1006.3
20260906054905 19 138 0.0 0.0 0.00 0.00 0.00 54 1006.3
20260906053904 20 138 0.0 3.2 0.00 0.00 0.00 52 1006.3
20260906052905 20 138 0.0 3.2 0.00 0.00 0.00 49 1006.2
20260906051904 20 138 0.0 3.2 0.00 0.00 0.00 47 1006.3
20260906051404 21 138 0.0 3.2 0.00 0.00 0.00 48 1006.3
20260906050904 21 138 1.6 4.8 0.00 0.00 0.00 47 1006.3
20260906045404 21 143 3.2 4.8 0.00 0.00 0.00 46 1006.3
20260906044904 21 145 1.6 4.8 0.00 0.00 0.00 47 1006.3
20260906043404 21 146 1.6 3.2 0.00 0.00 0.00 45 1006.4
20260906042904 22 146 0.0 1.6 0.00 0.00 0.00 44 1006.4
20260906042404 22 146 0.0 1.6 0.00 0.00 0.00 44 1006.4
20260906040904 23 146 0.0 3.2 0.00 0.00 0.00 40 1006.5
20260906040404 23 146 0.0 4.8 0.00 0.00 0.00 39 1006.5
20260906035904 23 145 1.6 4.8 0.00 0.00 0.00 38 1006.4
20260906035404 23 143 3.2 8.0 0.00 0.00 0.00 37 1006.3
20260906034404 23 149 3.2 8.0 0.00 0.00 0.00 36 1006.0
20260906032904 23 146 3.2 9.7 0.00 0.00 0.00 35 1005.8
20260906031405 23 50 3.2 8.0 0.00 0.00 0.00 35 1005.9
20260906030904 23 115 3.2 8.0 0.00 0.00 0.00 36 1005.8
20260906030405 23 154 3.2 8.0 0.00 0.00 0.00 37 1005.8
20260906025905 22 38 1.6 4.8 0.00 0.00 0.00 38 1005.7
20260906025404 22 80 0.0 4.8 0.00 0.00 0.00 39 1005.5
20260906024904 22 77 1.6 3.2 0.00 0.00 0.00 40 1005.3
20260906024404 22 121 1.6 3.2 0.00 0.00 0.00 42 1005.2
20260906023904 22 117 0.0 1.6 0.00 0.00 0.00 41 1005.1
20260906023404 23 101 0.0 3.2 0.00 0.00 0.00 42 1005.0
20260906021404 24 51 1.6 4.8 0.00 0.00 0.00 37 1004.9
20260906020903 24 49 0.0 4.8 0.00 0.00 0.00 37 1004.9
20260906020404 24 48 3.2 4.8 0.00 0.00 0.00 35 1004.8
20260906015904 25 219 0.0 3.2 0.00 0.00 0.00 37 1004.8
20260906014404 26 219 1.6 3.2 0.00 0.00 0.00 35 1004.5
20260906012904 26 212 1.6 4.8 0.00 0.00 0.00 36 1004.4
20260906011904 26 115 0.0 1.6 0.00 0.00 0.00 35 1004.4
20260906011404 27 115 0.0 4.8 0.00 0.00 0.00 36 1004.4
20260906010904 27 115 0.0 4.8 0.00 0.00 0.00 36 1004.4
20260906010404 27 102 0.0 4.8 0.00 0.00 0.00 35 1004.4
20260906005904 28 103 1.6 4.8 0.00 0.00 0.00 34 1004.4
20260906004904 28 81 0.0 3.2 0.00 0.00 0.00 32 1004.3
20260906003904 28 40 3.2 8.0 0.00 0.00 0.00 30 1004.2
20260906003404 29 312 0.0 3.2 0.00 0.00 0.00 32 1004.2
20260906002904 29 312 1.6 4.8 0.00 0.00 0.00 32 1004.2
20260906002404 29 55 1.6 4.8 0.00 0.00 0.00 29 1004.2
20260906001404 30 254 1.6 4.8 0.00 0.00 0.00 30 1004.4
20260906000404 30 38 1.6 4.8 0.00 0.00 0.00 30 1004.3
20260905235904 30 53 1.6 4.8 0.00 0.00 0.00 30 1004.3
20260905234904 30 81 0.0 4.8 0.00 0.00 0.00 30 1004.3
20260905234404 30 246 1.6 4.8 0.00 0.00 0.00 30 1004.2
20260905233904 30 245 3.2 4.8 0.00 0.00 0.00 31 1004.2
20260905233404 30 239 1.6 4.8 0.00 0.00 0.00 31 1004.3
20260905232904 30 248 1.6 4.8 0.00 0.00 0.00 31 1004.3
20260905232404 30 231 1.6 4.8 0.00 0.00 0.00 30 1004.2
20260905231404 30 213 0.0 8.0 0.00 0.00 0.00 31 1004.2
20260905225904 30 287 1.6 8.0 0.00 0.00 0.00 30 1004.2
20260905224904 31 244 4.8 11.3 0.00 0.00 0.00 28 1004.3
20260905224405 31 321 3.2 8.0 0.00 0.00 0.00 29 1004.1
20260905221904 31 262 1.6 4.8 0.00 0.00 0.00 31 1004.4
20260905221404 31 274 3.2 4.8 0.00 0.00 0.00 31 1004.4
20260905220904 31 205 1.6 8.0 0.00 0.00 0.00 32 1004.6
20260905220404 30 271 3.2 8.0 0.00 0.00 0.00 32 1004.5
20260905215904 30 23 3.2 9.7 0.00 0.00 0.00 32 1004.6
20260905214404 31 84 1.6 11.3 0.00 0.00 0.00 31 1004.6
20260905213905 31 28 3.2 11.3 0.00 0.00 0.00 31 1004.8
20260905213404 31 190 3.2 11.3 0.00 0.00 0.00 29 1004.8
20260905210404 30 304 3.2 8.0 0.00 0.00 0.00 30 1005.3
20260905205904 30 43 3.2 14.5 0.00 0.00 0.00 29 1005.2
20260905205404 30 237 3.2 14.5 0.00 0.00 0.00 30 1005.3
20260905204904 30 210 6.4 12.9 0.00 0.00 0.00 30 1005.5
20260905204404 30 216 4.8 12.9 0.00 0.00 0.00 30 1005.4
20260905203904 30 230 3.2 9.7 0.00 0.00 0.00 30 1005.6
20260905203404 30 102 1.6 8.0 0.00 0.00 0.00 31 1005.6
20260905202904 30 45 3.2 8.0 0.00 0.00 0.00 30 1005.7
20260905201903 30 155 4.8 11.3 0.00 0.00 0.00 29 1005.8
20260905200904 30 305 3.2 11.3 0.00 0.00 0.00 29 1005.9
20260905200404 30 177 3.2 9.7 0.00 0.00 0.00 32 1006.0
20260905195404 30 206 3.2 11.3 0.00 0.00 0.00 31 1006.2
20260905193904 30 325 1.6 4.8 0.00 0.00 0.00 33 1006.4
20260905193404 30 220 3.2 14.5 0.00 0.00 0.00 33 1006.3
20260905192904 30 236 3.2 14.5 0.00 0.00 0.00 32 1006.4
20260905192404 30 204 3.2 8.0 0.00 0.00 0.00 32 1006.6
20260905191904 29 173 3.2 8.0 0.00 0.00 0.00 32 1006.7
20260905191404 29 201 3.2 8.0 0.00 0.00 0.00 33 1006.9
20260905190904 28 341 1.6 4.8 0.00 0.00 0.00 35 1007.0
20260905190404 28 137 1.6 9.7 0.00 0.00 0.00 33 1007.1
20260905184403 28 282 3.2 14.5 0.00 0.00 0.00 32 1007.4
20260905183904 28 201 1.6 9.7 0.00 0.00 0.00 34 1007.4
20260905182904 28 62 3.2 9.7 0.00 0.00 0.00 35 1007.5
20260905181404 28 151 4.8 9.7 0.00 0.00 0.00 36 1007.8
20260905175404 26 304 3.2 11.3 0.00 0.00 0.00 40 1008.1
20260905174404 26 232 6.4 11.3 0.00 0.00 0.00 42 1008.2
20260905172904 26 166 3.2 12.9 0.00 0.00 0.00 43 1008.1
20260905170904 25 255 1.6 16.1 0.00 0.00 0.00 46 1008.2
20260905164404 25 187 3.2 11.3 0.00 0.00 0.00 48 1008.3
20260905163904 24 203 3.2 11.3 0.00 0.00 0.00 48 1008.3
20260905163404 24 273 3.2 16.1 0.00 0.00 0.00 49 1008.3
20260905162904 24 39 4.8 16.1 0.00 0.00 0.00 51 1008.3
20260905162404 23 291 3.2 14.5 0.00 0.00 0.00 51 1008.3
20260905160903 23 241 3.2 11.3 0.00 0.00 0.00 51 1008.2
20260905160404 23 232 3.2 11.3 0.00 0.00 0.00 53 1008.2
20260905155904 23 251 3.2 8.0 0.00 0.00 0.00 55 1008.2
20260905155404 23 178 3.2 8.0 0.00 0.00 0.00 57 1008.2
20260905152904 21 10 3.2 4.8 0.00 0.00 0.00 61 1008.3
20260905151904 21 258 3.2 8.0 0.00 0.00 0.00 65 1008.3
20260905145904 20 305 1.6 4.8 0.00 0.00 0.00 69 1008.4
20260905145404 20 222 0.0 4.8 0.00 0.00 0.00 69 1008.6
20260905144904 19 303 1.6 4.8 0.00 0.00 0.00 70 1008.6
20260905144404 19 244 0.0 4.8 0.00 0.00 0.00 70 1008.7
20260905142904 18 180 0.0 3.2 0.00 0.00 0.00 74 1008.8
20260905141904 17 153 0.0 1.6 0.00 0.00 0.00 76 1008.8
20260905140904 16 153 0.0 4.8 0.00 0.00 0.00 78 1009.0
20260905135904 15 139 1.6 4.8 0.00 0.00 0.00 80 1008.8
20260905134904 14 139 1.6 3.2 0.00 0.00 0.00 82 1008.8
20260905132404 13 0 0.0 0.0 0.00 0.00 0.00 82 1008.8
20260905131904 13 0 0.0 0.0 0.00 0.00 0.00 82 1008.8
20260905131404 13 0 0.0 0.0 0.00 0.00 0.00 82 1008.6
20260905130904 13 0 0.0 0.0 0.00 0.00 0.00 81 1008.5
20260905125904 13 0 0.0 0.0 0.00 0.00 0.00 81 1008.2
20260905124904 13 0 0.0 0.0 0.00 0.00 0.00 80 1008.0
20260905123904 14 0 0.0 0.0 0.00 0.00 0.00 79 1007.8
20260905122904 14 0 0.0 0.0 0.00 0.00 0.00 79 1007.6
20260905122404 15 0 0.0 0.0 0.00 0.00 0.00 78 1007.6
20260905121904 15 0 0.0 0.0 0.00 0.00 0.00 78 1007.5
20260905120404 15 140 0.0 0.0 0.00 0.00 0.00 77 1007.4
20260905115904 15 139 0.0 0.0 0.00 0.00 0.00 76 1007.4
20260905113903 16 139 0.0 1.6 0.00 0.03 0.00 76 1007.3
20260905112404 16 139 0.0 3.2 0.00 0.03 0.00 77 1007.3
20260905110904 16 139 0.0 0.0 0.00 0.03 0.00 78 1007.3
20260905110403 16 139 0.0 0.0 0.00 0.03 0.00 78 1007.3
20260905104403 16 139 0.0 0.0 0.00 0.03 0.00 77 1007.2
20260905103904 16 138 0.0 0.0 0.00 0.03 0.00 77 1007.1
20260905103403 16 136 0.0 0.0 0.00 0.03 0.00 77 1007.2
20260905102903 16 86 0.0 0.0 0.00 0.03 0.00 77 1007.2
20260905101404 15 139 0.0 0.0 0.00 0.03 0.00 77 1007.1